24h Messdaten per 25.09.2020 um 04:08:03

Datum Zeit Luftdruck Temp Balkon Feuchte Balkon Temp Strasse Feuchte Strasse Wind km/h Wind Boe Wind aus (Grad) Regen l/15min Licht Lux Sonne h/Monat
25.09.20 04:08:03 995 9.3 56
25.09.20 04:03:02 995 9.1 65
25.09.20 03:58:02 995 8.9 66
25.09.20 03:53:02 995 8.8 66
25.09.20 03:48:02 995 8.6 65
25.09.20 03:43:02 994 8.6 65
25.09.20 03:38:02 994 8.6 64
25.09.20 03:33:02 994 8.7 64
25.09.20 03:28:02 995 8.7 64
25.09.20 03:23:02 995 8.7 63
25.09.20 03:18:02 995 8.7 63
25.09.20 03:13:02 995 8.9 62 0.0
25.09.20 03:08:02 995 8.9 62 0.0
25.09.20 03:03:02 995 9.2 62 0.0
25.09.20 02:58:02 995 9.2 62 0.0
25.09.20 02:52:01 995 9.2 61 0.0
25.09.20 02:47:01 995 9.1 61 0.0
25.09.20 02:42:01 995 9.4 62 0.0
25.09.20 02:37:00 995 9.4 62 0.0
25.09.20 02:32:00 995 9.5 62 0.0
25.09.20 02:27:00 995 9.5 63 0.0
25.09.20 02:22:01 9.5 63 0.0
25.09.20 02:17:01 995 9.4 63 0.0
25.09.20 02:12:01 995 9.6 64 4.0 7.9 135 0.0
25.09.20 02:07:00 995 9.6 64 2.5 2.5 67.5 0.0
25.09.20 02:02:00 995 9.7 65 0.7 2.9 270 0.0
25.09.20 01:57:00 995 9.7 65 0.7 0.0 180 0.0
25.09.20 01:52:01 995 9.7 66 0.7 0.0 225 0.0
25.09.20 01:47:01 995 9.8 66 0.0 4.0 225 0.0
25.09.20 01:42:01 995 9.8 65 0.0 0.0 270 0.0
25.09.20 01:37:01 995 9.9 66 0.0 0.0 247.5 0.0
25.09.20 01:32:01 995 9.9 65 0.4 2.2 202.5 0.0
25.09.20 01:27:00 995 10.1 65 0.4 1.4 270 0.0
25.09.20 01:22:01 995 10.1 65 0.4 0.0 247.5 0.0
25.09.20 01:17:01 995 10.3 66 0.7 0.0 45 0.0
25.09.20 01:12:01 995 10.3 65 1.4 1.4 45 0.0
25.09.20 01:07:00 995 10.4 64 1.8 0.0 157.5 0.0
25.09.20 01:02:00 995 10.4 61 1.8 1.4 292.5 0.0
25.09.20 00:57:00 995 10.7 56 1.8 1.8 112.5 0.0
25.09.20 00:52:01 995 11.6 54 2.5 5.8 135 0.0
25.09.20 00:47:01 995 12.2 58 3.2 4.0 135 0.0
25.09.20 00:42:01 995 12.2 55 2.9 4.7 135 0.0
25.09.20 00:37:00 995 12.0 52 2.9 4.0 67.5 0.0
25.09.20 00:32:00 994 12.2 53 2.9 4.0 112.5 0.0
25.09.20 00:27:00 994 12.4 54 2.9 2.9 157.5 0.0
25.09.20 00:22:00 994 12.2 54 4.0 6.5 135 0.0
25.09.20 00:17:00 995 12.2 54 2.9 6.8 112.5 0.7
25.09.20 00:12:00 995 12.2 53 2.9 5.4 112.5 0.0
25.09.20 00:07:00 995 12.3 54 3.2 3.2 67.5 1.4
25.09.20 00:02:00 995 12.3 55 2.9 5.4 90
24.09.20 23:57:00 995 12.4 59 2.5 5.4 135 0.0
24.09.20 23:52:01 995 12.2 63 1.8 5.0 135 0.7
24.09.20 23:47:01 995 12.1 65 2.5 6.1 135 0.0
24.09.20 23:42:01 995 12.0 66 3.2 2.2 247.5 0.0
24.09.20 23:37:01 995 11.8 66 4.0 6.8 135 0.0
24.09.20 23:32:01 995 11.5 65 4.7 7.6 112.5 0.0
24.09.20 23:27:01 995 11.4 65 5.4 10.4 90 0.0
24.09.20 23:22:01 995 11.3 65 5.0 7.6 135 0.0
24.09.20 23:17:01 995 4.3 6.5 112.5 0.0
24.09.20 23:12:01 995 11.5 63 4.3 7.6 157.5 0.0
24.09.20 23:07:01 995 11.3 62 4.7 9.0 112.5 0.0
24.09.20 23:02:01 995 4.7 9.0 112.5 0.0
24.09.20 22:57:00 996 11.6 61 4.7 13.7 90 0.0
24.09.20 22:52:01 996 11.5 59 3.2 21.2 90 0.0
24.09.20 22:47:01 996 11.6 58 0.4 2.9 112.5 0.0
24.09.20 22:42:01 996 11.8 57 0.0 0.0 112.5 0.0
24.09.20 22:37:00 996 12.0 56 0.0 0.0 292.5 0.0
24.09.20 22:32:00 996 12.2 57 0.0 0.0 247.5 0.0
24.09.20 22:27:00 996 12.5 57 0.4 0.0 180 0.0
24.09.20 22:22:01 996 12.4 56 0.4 0.0 112.5 0.0
24.09.20 22:17:01 996 12.5 54 0.4 1.8 180 0.0
24.09.20 22:12:01 996 12.5 54 0.4 1.4 225 0.0
24.09.20 22:07:00 996 12.5 52 1.4 1.8 225 0.0
24.09.20 22:02:00 996 12.8 48 1.8 1.8 247.5 0.0
24.09.20 21:57:00 997 13.2 44 1.1 4.3 90 0.0
24.09.20 21:52:01 997 13.1 41 0.7 0.0 292.5 0.0
24.09.20 21:47:01 996 13.8 38 0.7 0.0 247.5 0.0
24.09.20 21:42:01 996 13.9 37 0.7 2.2 225 0.0
24.09.20 21:37:01 996 14.2 33 0.7 2.9 247.5 0.0
24.09.20 21:32:01 14.5 31 0.4 0.0 247.5 0.0
24.09.20 21:27:01 14.5 31 0.4 0.0 247.5 0.0
24.09.20 21:22:01 14.5 31 0.4 0.0 112.5 0.0
24.09.20 21:17:01 996 14.5 31 0.0 0.0 45 0.0
24.09.20 21:12:01 996 14.4 30 0.0 0.0 112.5 0.0
24.09.20 21:07:01 996 14.3 30 0.4 0.0 225 0.0
24.09.20 21:02:01 14.2 31 0.0 0.0 225 0.0
24.09.20 20:57:01 996 14.1 31 0.0 0.0 225 0.0
24.09.20 20:52:01 996 14.1 31 0.0 0.0 112.5 0.0
24.09.20 20:47:01 997 14.0 30 0.4 0.0 22.5 0.0
24.09.20 20:42:01 997 14.0 30 0.7 0.0 135 0.0
24.09.20 20:37:02 997 14.1 30 0.7 0.0 337.5 0.0
24.09.20 20:32:01 997 14.0 30 1.1 0.0 157.5 0.0
24.09.20 20:27:01 997 13.9 30 1.8 0.0 247.5 0.0
24.09.20 20:22:01 997 13.8 31 1.8 2.9 22.5 0.0
24.09.20 20:17:01 997 13.6 31 1.4 3.6 157.5 0.0
24.09.20 20:12:01 997 13.6 31 1.8 0.0 112.5 0.0
24.09.20 20:07:00 997 13.6 31 1.8 2.2 112.5 0.0
24.09.20 20:02:00 997 13.6 30 2.2 5.0 202.5 0.0
24.09.20 19:57:00 997 13.7 30 2.2 2.2 157.5 0.0
24.09.20 19:52:01 997 14.0 30 1.4 6.1 135 0.0
24.09.20 19:47:01 997 14.1 29 1.4 2.9 180 0.0
24.09.20 19:42:01 997 14.0 28 1.1 2.9 247.5 0.0
24.09.20 19:37:00 997 14.0 28 0.7 3.6 270 0.0
24.09.20 19:32:00 997 14.3 27 0.7 1.4 22.5 0.0
24.09.20 19:27:00 998 14.4 27 0.7 0.0 67.5 0.0
24.09.20 19:22:01 998 14.5 25 0.4 0.0 247.5 0.0
24.09.20 19:17:01 998 14.9 24 0.4 0.0 180 0.0
24.09.20 19:12:01 998 15.2 21 0.0 0.0 225 0.0
24.09.20 19:07:01 998 15.4 20 0.0 0.0 337.5 0.0
24.09.20 19:02:01 998 15.7 20 0.0 0.0 225 0.0
24.09.20 18:57:01 998 16.1 20 0.0 0.0 225 0.0
24.09.20 18:52:01 998 16.3 20 0.0 0.0 270 0.0
24.09.20 18:47:01 998 16.4 20 0.0 0.0 270 0.0
24.09.20 18:42:01 998 16.5 20 0.0 0.0 315 0.0
24.09.20 18:37:01 998 16.7 20 0.0 0.0 270 0.0
24.09.20 18:32:01 998 16.7 20 0.0 0.0 225 0.0
24.09.20 18:27:01 998 16.7 20 0.0 0.0 202.5 0.0
24.09.20 18:22:01 999 16.9 20 0.0 0.0 247.5 0.0
24.09.20 18:17:01 999 17.0 20 0.0 0.0 225 0.0
24.09.20 18:12:01 999 17.2 20 0.0 0.0 225 0.0
24.09.20 18:07:01 17.2 20 0.0 0.0 22.5 0.0
24.09.20 18:02:01 999 17.3 20 0.0 0.0 22.5 0.0
24.09.20 17:57:01 999 17.4 20 0.0 0.0 22.5 0.0
24.09.20 17:52:01 999 17.8 20 0.0 0.0 270 0.0
24.09.20 17:47:01 999 18.0 20 0.0 0.0 135 0.0
24.09.20 17:42:01 999 18.0 20 0.0 0.0 270 0.0
24.09.20 17:37:01 999 18.1 20 0.0 0.0 270 0.0
24.09.20 17:32:01 999 18.1 20 0.0 2.9 202.5 0.0
24.09.20 17:27:01 999 18.4 20 0.0 0.0 0 0.0
24.09.20 17:22:01 999 18.6 20 0.0 0.0 112.5 0.0
24.09.20 17:17:01 999 18.9 20 0.0 0.0 225
24.09.20 17:12:01 999 19.0 20 0.0 1.8 247.5 0.0
24.09.20 17:07:01 999 20.3 20 0.4 0.0 135 0.0
24.09.20 17:02:01 999 19.9 20 1.1 0.0 247.5 0.0
24.09.20 16:57:01 999 19.6 20 1.1 2.9 135 0.0
24.09.20 16:52:01 999 19.4 20 1.1 2.9 135 0.0
24.09.20 16:47:01 999 19.9 20 1.4 0.0 247.5 0.0
24.09.20 16:42:01 1000 19.5 20 1.4 0.0 157.5 0.0
24.09.20 16:37:01 1000 19.1 20 2.2 2.2 67.5 0.0
24.09.20 16:32:01 1000 18.9 20 2.2 2.5 67.5 0.0
24.09.20 16:27:01 1000 19.7 20 1.4 2.9 135 0.0
24.09.20 16:22:01 1000 20.5 20 1.4 0.0 202.5 0.0
24.09.20 16:17:01 1000 20.2 20 1.4 0.0 202.5 0.0
24.09.20 16:12:01 1000 20.8 20 2.9 5.4 270 0.0
24.09.20 16:07:01 1000 20.3 20 3.6 0.0 112.5 0.0
24.09.20 16:02:01 1000 20.0 20 3.6 7.9 90 0.0
24.09.20 15:57:01 1000 19.2 20 2.9 0.0 22.5 0.0
24.09.20 15:52:01 1000 20.3 20 2.9 2.2 180 0.0
24.09.20 15:47:01 1000 20.1 20 2.9 5.4 135 0.0
24.09.20 15:42:01 1000 19.1 20 3.6 2.9 135 0.0
24.09.20 15:37:01 1001 19.2 20 3.2 5.0 112.5 0.0
24.09.20 15:32:01 1001 20.9 20 2.9 4.3 67.5 0.0
24.09.20 15:27:01 1001 21.6 20 3.6 2.9 90 0.0
24.09.20 15:22:02 1001 20.5 20 3.2 7.6 135 0.0
24.09.20 15:17:01 1001 19.3 20 3.2 5.0 112.5 0.0
24.09.20 15:12:01 1001 19.5 20 4.0 2.9 180 0.0
24.09.20 15:07:01 19.6 20 4.3 7.2 67.5 0.0
24.09.20 15:02:01 1001 18.7 20 4.3 6.1 135 0.0
24.09.20 14:57:01 1001 19.0 20 3.6 7.2 135 0.0
24.09.20 14:52:01 1001 19.5 20 2.9 4.3 270 0.0
24.09.20 14:47:01 1001 21.3 20 3.6 3.2 135 0.0
24.09.20 14:42:01 1001 22.2 20 3.2 2.9 67.5 0.0
24.09.20 14:37:01 1001 20.7 20 3.6 3.2 247.5 0.0
24.09.20 14:32:01 1001 19.6 20 4.0 4.0 112.5 0.0
24.09.20 14:27:01 1001 21.9 20 3.2 6.1 112.5 0.0
24.09.20 14:22:02 1001 18.8 20 3.6 3.2 135 0.0
24.09.20 14:17:01 1002 19.2 20 3.2 3.6 45 0.0
24.09.20 14:12:01 1002 17.6 20 2.9 7.2 202.5 0.0
24.09.20 14:07:02 1002 17.1 20 4.0 4.7 247.5 0.0
24.09.20 14:02:02 1002 17.2 20 4.0 4.0 112.5 0.0
24.09.20 13:57:01 1002 18.5 20 4.3 4.7 112.5 0.0
24.09.20 13:52:01 1002 17.6 20 5.0 2.9 247.5 0.0
24.09.20 13:47:01 18.1 20 4.7 4.7 112.5 0.0
24.09.20 13:42:01 1002 17.4 20 4.3 3.2 67.5 0.0
24.09.20 13:37:01 1002 18.6 20 4.0 2.9 45 0.0
24.09.20 13:32:01 1002 19.7 20 4.3 5.4 112.5 0.0
24.09.20 13:27:01 1002 19.6 20 5.0 6.1 112.5 0.0
24.09.20 13:22:01 1002 6.5 5.8 67.5 0.0
24.09.20 13:17:01 1002 6.8 7.9 90 0.0
24.09.20 13:12:01 1002 7.2 19.8 135 0.0
24.09.20 13:07:01 1002 18.0 20 7.2 10.8 90 0.0
24.09.20 13:02:01 1002 17.3 20 6.1 16.2 67.5 0.0
24.09.20 12:57:01 1002 17.9 20 5.4 9.0 135 0.0
24.09.20 12:52:01 1002 16.9 20 4.7 9.4 112.5 0.0
24.09.20 12:47:01 1002 16.9 20 4.7 7.9 90 0.0
24.09.20 12:42:01 1002 16.5 20 4.7 5.8 337.5 0.0
24.09.20 12:37:01 1002 16.4 20 3.2 8.3 112.5 0.0
24.09.20 12:32:01 1002 16.4 20 3.2 5.8 90 0.0
24.09.20 12:27:01 1002 15.8 20 4.7 8.6 135 0.0
24.09.20 12:22:01 1002 15.4 20 5.4 7.9 112.5 0.0
24.09.20 12:17:01 1002 15.2 20 6.1 13.7 112.5 0.0
24.09.20 12:12:01 1003 15.4 20 6.1 6.8 67.5 0.0
24.09.20 12:07:01 1003 15.7 20 5.4 12.2 135 0.0
24.09.20 12:02:01 1003 16.0 20 4.7 8.3 45 0.0
24.09.20 11:57:01 1003 15.5 20 4.3 4.0 315 0.0
24.09.20 11:52:01 1003 15.5 20 5.0 6.8 135 0.0
24.09.20 11:47:01 1003 15.1 20 4.7 5.0 135 0.0
24.09.20 11:42:01 1003 15.1 20 4.7 9.0 157.5 0.0
24.09.20 11:37:01 1003 15.2 22 4.3 3.6 180 0.0
24.09.20 11:32:01 1003 4.0 6.1 180 0.0
24.09.20 11:27:01 1003 14.8 25 4.7 3.6 112.5 0.0
24.09.20 11:22:02 1003 14.8 25 5.0 2.5 45 0.0
24.09.20 11:17:01 1003 14.9 24 5.4 11.5 135 0.0
24.09.20 11:12:01 1003 14.7 20 5.0 5.4 67.5 0.0
24.09.20 11:07:01 1003 14.8 20 4.7 10.8 112.5 0.0
24.09.20 11:02:01 1003 17.0 20 4.3 6.1 67.5 0.0
24.09.20 10:57:01 1003 17.0 20 5.0 9.7 112.5 0.0
24.09.20 10:52:01 1003 16.6 20 4.7 8.6 135 0.0
24.09.20 10:47:01 1003 15.9 21 3.6 7.6 202.5 0.0
24.09.20 10:42:01 1003 4.3 1.8 112.5 0.0
24.09.20 10:37:01 1003 15.8 27 5.0 8.3 90 0.0
24.09.20 10:32:01 1003 16.6 29 5.0 8.3 180 0.0
24.09.20 10:27:01 1003 16.6 30 4.7 11.5 112.5 0.0
24.09.20 10:22:01 1003 14.7 33 4.0 4.7 112.5 0.0
24.09.20 10:17:01 1003 14.2 33 4.3 6.8 90 0.0
24.09.20 10:12:01 1003 15.0 32 3.2 8.3 112.5 0.0
24.09.20 10:07:01 1003 15.3 32 3.2 8.3 112.5 0.0
24.09.20 10:02:01 1003 15.1 32 2.9 9.4 45 0.0
24.09.20 09:57:01 1003 15.4 33 4.0 4.3 247.5 0.0
24.09.20 09:52:02 1003 14.3 34 4.3 1.8 67.5 0.0
24.09.20 09:47:02 1003 13.6 34 3.6 7.6 180 0.0
24.09.20 09:42:02 1003 14.1 35 3.2 1.4 157.5 0.0
24.09.20 09:37:01 1003 14.2 36 2.9 5.4 112.5 0.0
24.09.20 09:32:01 1003 13.3 36 2.5 3.6 157.5 0.0
24.09.20 09:27:01 1003 13.4 38 3.2 4.0 112.5 0.0
24.09.20 09:22:02 1003 12.7 39 4.0 5.0 112.5 0.0
24.09.20 09:17:02 1003 12.6 40 4.7 2.2 112.5 0.0
24.09.20 09:12:02 1003 12.2 40 4.3 7.6 90 0.0
24.09.20 09:07:02 1002 12.8 40 3.6 2.9 135 0.0
24.09.20 09:02:02 1002 12.4 40 3.6 3.6 0 0.0
24.09.20 08:57:02 1002 12.8 40 2.9 7.2 90 0.0
24.09.20 08:52:01 12.7 40 4.0 2.9 67.5 0.0
24.09.20 08:47:01 1002 12.8 41 4.3 11.5 112.5 0.0
24.09.20 08:42:01 1002 12.6 42 3.6 5.8 112.5 0.0
24.09.20 08:37:01 1002 11.9 44 3.2 4.7 45 0.0
24.09.20 08:32:01 1002 11.0 46 2.9 2.5 247.5 0.0
24.09.20 08:27:01 1002 10.9 46 4.0 2.5 67.5 0.0
24.09.20 08:22:01 1002 10.8 47 4.0 4.0 0 0.0
24.09.20 08:17:01 1002 10.6 48 4.0 4.7 135 0.0
24.09.20 08:12:01 1002 10.7 48 4.0 4.3 67.5 0.0
24.09.20 08:07:01 1002 10.6 48 4.0 6.5 135 0.0
24.09.20 08:02:01 1002 10.6 48 4.3 1.8 67.5 0.0
24.09.20 07:57:01 1002 10.7 48 4.7 5.8 90 0.0
24.09.20 07:52:02 1002 5.0 4.7 67.5 0.0
24.09.20 07:47:02 1002 10.7 50 4.7 3.6 135 0.0
24.09.20 07:42:02 1002 10.4 51 5.8 6.5 135 0.0
24.09.20 07:37:01 1002 10.4 51 6.1 8.6 180 0.0
24.09.20 07:32:01 1002 10.5 51 5.4 6.1 135 0.0
24.09.20 07:27:01 1002 10.6 51 5.8 6.8 135 0.0
24.09.20 07:22:02 1002 10.6 52 5.8 6.8 90 0.0
24.09.20 07:17:02 1002 10.5 54 4.7 8.3 135 0.0
24.09.20 07:12:02 1002 10.5 52 4.7 3.2 90 0.0
24.09.20 07:07:02 1002 10.3 52 5.4 6.8 67.5 0.0
24.09.20 07:02:02 1002 10.6 51 4.7 6.5 135 0.0
24.09.20 06:57:02 1002 10.5 52 4.0 7.9 135 0.0
24.09.20 06:52:04 1002 4.0 9.0 67.5 0.0
24.09.20 06:47:04 1002 10.8 52 3.6 3.6 135 0.0
24.09.20 06:42:04 1002 10.2 52 4.3 2.9 90 0.0
24.09.20 06:37:03 1002 10.6 51 5.4 8.3 157.5 0.0
24.09.20 06:32:03 1001 10.8 52 5.0 11.5 135 0.0
24.09.20 06:27:03 1001 10.8 52 4.3 9.4 67.5 0.0
24.09.20 06:22:02 1001 4.0 2.9 0 0.0
24.09.20 06:17:02 1001 10.7 52 5.0 2.2 112.5 0.0
24.09.20 06:12:02 1001 10.7 51 6.1 2.9 67.5 0.0
24.09.20 06:07:02 1001 10.8 52 6.5 18.0 90 0.0
24.09.20 06:02:02 1001 10.6 53 6.1 10.8 112.5 0.0
24.09.20 05:57:02 1001 10.4 53 5.4 7.6 90 0.0
24.09.20 05:52:02 1001 10.5 53 4.3 3.2 67.5 0.0
24.09.20 05:47:02 1001 10.5 52 3.6 4.0 112.5 0.0
24.09.20 05:42:02 1001 10.9 52 4.3 4.7 112.5 0.0
24.09.20 05:37:02 1001 10.8 51 5.0 4.7 67.5 0.0
24.09.20 05:32:02 1001 11.0 52 6.1 8.6 112.5 0.0
24.09.20 05:27:02 1001 11.0 51 4.0 5.0 67.5 0.0
24.09.20 05:22:07 1001 11.1 52 3.2 6.5 247.5 0.0
24.09.20 05:17:07 1001 11.1 50 3.2 0.0 292.5 0.0
24.09.20 05:12:07 1001 11.4 51 3.6 3.2 90 0.0
24.09.20 05:07:02 1000 11.0 50 4.0 2.9 112.5 0.0
24.09.20 05:02:02 1000 11.0 52 4.0 5.4 112.5 0.0
24.09.20 04:57:02 1000 11.5 52 4.7 8.3 135 0.0
24.09.20 04:52:02 1000 11.3 53 3.6 3.2 112.5 0.0
24.09.20 04:47:02 1000 11.3 54 2.9 4.0 45 0.0
24.09.20 04:42:02 1000 11.3 56 4.0 2.5 135 0.0
24.09.20 04:37:01 1000 11.1 56 4.3 4.7 67.5 0.0
24.09.20 04:32:01 1000 11.2 57 3.6 5.4 112.5 0.0
24.09.20 04:27:01 1000 11.3 56 3.6 2.9 112.5 0.0
24.09.20 04:22:02 1000 11.1 57 3.2 6.1 90 0.0
24.09.20 04:17:02 1000 11.3 56 3.2 6.8 112.5 0.0
24.09.20 04:12:02 1000 11.7 56 3.2 3.6 112.5 0.0
Index
© 2002-2012 Thomas Dreßler
Alle Rechte vorbehalten
letzte Scriptänderung 12.11.2012